星链-31385 (STARLINK-31385 )

导读

STARLINK-31385是美国SpaceX公司星链(Starlink)星座中的一颗卫星,于2024年2月15日发射升空。星链星座旨在通过低轨卫星群为全球提供高速低延迟宽带互联网服务,尤其覆盖传统基础设施匮乏的偏远地区。作为星座扩容的一部分,该卫星将助力星链持续扩展全球网络覆盖,提升服务容量与稳定性。

Basic Information
目录编号:
58985
目录名称:
STARLINK-31385
国际标识:
2024-031W
轨道中心:
EARTH
卫星名称:
星链-31385
卫星全名:
星链-31385 (STARLINK-31385 )
卫星状态:
在轨 (已飞行933 天)
发射日期:
2024-02-15 UTC
国别 :
美国 (US)
星等 :
--
Orbit Information
数据来源 国际轨道数据
星历时间: 2026-09-04T13:44:22+0800
1天前
查看轨道信息
半长轴: 6840.852km
偏心率: 0.0001421
轨道倾角: 53.159°
近地点辐角 95.763°
升交点赤经 181.372°
平近点角 264.354°
近地点: 461.742km
远地点: 463.688km
周期: 93.848分钟
每日圈数: 15.343962
Detailed Information
固有亮度:
5
最大亮度:
0.3
卫星平台:
Starlink v2.0 mini
覆盖范围:
全球
运营商:
太空探索技术公司
运营商所在国:
美国
制造商(研发单位):
太空探索技术公司
制造商所在国:
美国
使用方式:
暂无
Satellite Introduction
星链(Starlink)计划是由太空探索技术公司(SpaceX)提出的一个巨型低轨卫星互联网星座项目,计划在2019年至2024年间在太空搭建由约1.2万颗卫星组成的“星链”网络,其中1584颗将部署在地球上空550千米处的近地轨道,并从2020年开始工作。该卫星仍在工作。
2D Orbit Map
3D Orbit Map
Orbit Altitude Analysis Chart
Orbit Inclination Analysis Chart
Orbit Comprehensive Analysis Chart
View Comprehensive Chart
Conjunction Data List
Event ID Objects TCA Miss Dist (km) Collision Risk Probability Collision Risk Index (CRI) Action
CDM_260907-015105-898506-932222
OBJECT C (69322)
2026-09-07T
01:51:06+0000
0.381 km
远距离
3.148182E-4 高风险 0.85
CDM_260907-133305-898506-663721
2026-09-07T
13:33:07+0000
0.850 km
远距离
4.042553E-5 中风险 0.67
CDM_260907-150605-898506-663721
2026-09-07T
15:06:54+0000
0.902 km
远距离
3.318806E-5 中风险 0.65
CDM_260908-004405-898506-608521
2026-09-08T
00:44:10+0000
1.383 km
极远距离
4.081349E-6 低风险 0.47
CDM_260907-115905-898506-663721
2026-09-07T
11:59:19+0000
2.232 km
极远距离
1.93281E-6 低风险 0.41
CDM_260907-164005-898506-663721
2026-09-07T
16:40:42+0000
2.349 km
极远距离
1.737862E-6 低风险 0.4
CDM_260907-231005-898506-608521
2026-09-07T
23:10:23+0000
1.945 km
极远距离
1.522597E-6 低风险 0.39
CDM_260905-030605-898505-937721
2026-09-05T
03:06:37+0000
2.519 km
极远距离
1.220889E-6 低风险 0.37